Find Starlink 3509

NORAD ID: 51737 Int'l Des: 2022-016 Owner: SPXS Country: US Constellation: starlink operational
LEOCIRCULAR

当前视图

正在加载3D地球...

About Starlink 3509

Starlink 3509 (NORAD 51737) is a starlink constellation satellite (v1.5) launched Feb 21, 2022 by SPXS of US. It operates in LEO, CIRCULAR orbit with a mass of 297.00 kg.

关于 Starlink 3509

正在加载描述...

即将过境

Passes for default location (London). Set your location on the main map for personalized predictions.

高度历史

Loading altitude history...

两行轨道根数

1 51737U 22016Z 26202.04236985 -.00001998 00000-0 -69794-4 0 9991
2 51737 53.1598 77.8695 0002151 71.2465 288.8766 15.23055454243729
Epoch: Jul 21, 2026 • Age: 10 hours

当前状态

高度 497.2 km
远地点 / 近地点 N/A
速度 7.62 km/s
星下点 24.34°N, 130.24°E
发射日期 Feb 21, 2022
运行时间 4.4 years
类型 internet

技术详情

分类 Payload
质量 297.00 kg
干质量 275.00 kg
总质量 297.00 kg
长度 0.20 m
直径 2.80 m
跨度 9.00 m
形状 Box + pan
制造商 SPXS
平台类型 Starlink
阶段状态 In Orbit
所有者/国家 SPXS/US

Most Searched